Regional Weather Roundup
Issued by NWS

Home | Current Version | Previous Version | Graphics & Text | Print | Product List | Glossary On
Versions: 1 2 3 4 5 6 7 8 9 10 11 12 13 14 15 16 17 18 19 20 21 22 23 24 25 26 27 28 29 30 31 32 33 34 35 36 37 38 39 40 41 42 43 44 45 46 47 48 49 50
068
ASUS45 KPSR 250210
RWRAZ

ARIZONA REGIONAL HOURLY WEATHER ROUNDUP
NATIONAL WEATHER SERVICE TUCSON AZ
700 PM MST SAT JUN 24 2017

NOTE: FAIR INDICATES FEW OR NO CLOUDS BELOW 12,000 FEET WITH NO
SIGNIFICANT WEATHER AND/OR OBSTRUCTIONS TO VISIBILITY.

AZZ001>003-036-250300-
NORTHWEST ARIZONA

CITY           SKY/WX    TMP DP  RH WIND       PRES   REMARKS
BULLHEAD CITY  CLEAR    117  25   4 CALM      29.60S HX 106
KINGMAN        PTCLDY   106  31   7 NW8       29.89R
$$

AZZ004>008-015-016-018-250300-
NORTH CENTRAL ARIZONA

CITY           SKY/WX    TMP DP  RH WIND       PRES   REMARKS
GRAND CANYON   MOCLDY    89  21   8 NW7       30.20R
PRESCOTT       PTCLDY    95  32  11 W7        30.05R
FLAGSTAFF      MOCLDY    85  24  11 SW9       30.22R
PAYSON         PTCLDY    93  34  12 W8        30.09R
PAGE           CLEAR     99  26   7 NE10      29.95R
$$

AZZ009>014-017-250300-
NORTHEAST ARIZONA

CITY           SKY/WX    TMP DP  RH WIND       PRES   REMARKS
WINSLOW        PTCLDY    96  26   8 W7        30.01S
SAINT JOHNS    MOCLDY    90  39  16 E7        30.08R HAZE
WINDOW ROCK    CLEAR     89  21   8 NW7       30.19R
SHOW LOW       CLOUDY    82  36  18 S13       30.19R
$$

AZZ023-250300-
GREATER PHOENIX AREA

CITY           SKY/WX    TMP DP  RH WIND       PRES   REMARKS
PHOENIX        PTCLDY   113  38   8 W17       29.65R HX 106
BUCKEYE        PTCLDY   108  39   9 SW7       29.66R HX 101
GLENDALE       PTCLDY   113  34   6 SW10G17   29.67R HX 105
DEER VALLEY    CLEAR    110  37   8 SW14      29.68R HX 103
SCOTTSDALE     CLEAR    111  35   7 W9        29.70R HX 104
MESA-FALCON    PTCLDY   109  43  10 W8        29.68S HX 104
MESA-GATEWAY   PTCLDY   111  37   8 NW10      29.68S HX 104
CHANDLER       CLEAR    111  36   7 SW14      29.67R HX 104
$$

AZZ027-028-250300-
SOUTHWEST MARICOPA COUNTY AND PINAL COUNTY

CITY           SKY/WX    TMP DP  RH WIND       PRES   REMARKS
CASA GRANDE      N/A    N/A N/A N/A MISG        N/A
$$

AZZ503-504-507>509-250300-
SOUTHEAST ARIZONA

CITY           SKY/WX    TMP DP  RH WIND       PRES   REMARKS
TUCSON         CLEAR    109  32   7 N10       29.82R HX 101
NOGALES        PTCLDY   101  31   8 NW9       29.93R
DOUGLAS        MOCLDY    95  38  13 SE12      29.97R
SAFFORD        MOCLDY    98  44  15 E20       29.88R
$$

AZZ020-021-025-026-031-250300-
SOUTHWEST ARIZONA

CITY           SKY/WX    TMP DP  RH WIND       PRES   REMARKS
YUMA           CLEAR    107  57  19 S10       29.62S HX 107
$$

CAZ031-033-041-043-047-048-061-250300-
SOUTHERN CALIFORNIA

CITY           SKY/WX    TMP DP  RH WIND       PRES   REMARKS
DOWNTOWN L.A.  SUNNY     73  60  63 W3        29.84S
L.A. AIRPORT   MOSUNNY   67  60  78 W12       29.85S
SAN DIEGO      MOSUNNY   67  60  78 W14       29.87R
BURBANK        SUNNY     80  59  48 E10G17    29.83F
ONTARIO        MOSUNNY   84  60  44 W9        29.84R
RIVERSIDE      SUNNY     85  61  44 W9        29.84R
PALM SPRINGS   SUNNY    113  40   8 NW25G33   29.64S HX 107
EL CENTRO NAS  PTCLDY   115  37   7 SE3       29.59S HX 107
IMPERIAL       MOCLDY   116  44   9 SW3       29.57S HX 110
BLYTHE         MOCLDY   116  38   7 S12       29.59R HX 108
NEEDLES        MOCLDY   119  22   3 SE8       29.62R HX 107
$$

NVZ020-UTZ003-250300-
SOUTHERN NEVADA-UTAH

CITY           SKY/WX    TMP DP  RH WIND       PRES   REMARKS
LAS VEGAS      MOSUNNY  111  10   3 VRB5      29.76S HX 101
SALT LAKE CITY CLEAR     86  22   9 N6        30.12S
$$

NMZ009-TXZ055-250300-
NEW MEXICO-WEST TEXAS

CITY           SKY/WX    TMP DP  RH WIND       PRES   REMARKS
ALBUQUERQUE    MOCLDY    79  48  33 S31G40    30.18R
EL PASO        MOCLDY    90  55  30 NE18      30.09R
$$


........................KEY........................
SKY/WX - SKY CONDITION/WEATHER
TMP    - TEMPERATURE IN FAHRENHEIT
DP     - DEWPOINT IN FAHRENHEIT
RH     - RELATIVE HUMIDITY IN PERCENT
WIND   - DIRECTION AND SPEED IN MILES PER HOUR (MPH)
VRB    - VARIABLE WIND DIRECTION
PRES   - MEAN SEA LEVEL PRESSURE IN INCHES OF MERCURY
         F - FALLING PRESSURE   R - RISING PRESSURE
         S - STEADY PRESSURE
VSB    - VISIBILITY IN MILES
HX     - HEAT INDEX IN FAHRENHEIT
WCI    - WIND CHILL INDEX IN FAHRENHEIT
TC     - TEMPERATURE IN CELSIUS WHICH IS ALSO KNOWN AS
         TEMPERATURE IN CENTIGRADE
AFB    - AIR FORCE BASE
         LUKE AFB IS LUKE AIR FORCE BASE
         DAVIS-MONTHAN IS DAVIS-MONTHAN AIR FORCE BASE
NAS    - NAVAL AIR STATION
         EL CENTRO NAS IS EL CENTRO NAVAL AIR STATION
N/A    - NOT AVAILABLE





USA.gov is the U.S. government's official web portal to all federal, state and local government web resources and services.